Back to catalog

ONEWEB-0534

AliveCommunicationsPO
NORAD 55797·PAYLOAD·🇬🇧 United Kingdom

Launched Mar 9, 2023 from Cape Canaveral Space Force Station

Loading…

Next Passes (next 24 hours)

TLE

FreshSource: CelesTrak SupGP

Epoch: Sep 14, 2026, 17:19 UTC

1 55797C 23029B   26257.72201806 -.00000139  00000+0 -34247-3 0  2571
2 55797  87.9127 256.6019 0002056  87.2525  24.9604 13.20770286    12

Track ONEWEB-0534 in real time with AllMySat

Download on the App Store